Find Starlink 37127

NORAD ID: 68236 Int'l Des: 2026-054 Owner: SPXS Country: US Constellation: starlink operational
LEOCIRCULAR

現在のビュー

3D地球を読み込み中...

About Starlink 37127

Starlink 37127 (NORAD 68236) is a starlink constellation satellite (v2 mini) launched Mar 17, 2026 by SPXS of US. It operates in LEO, CIRCULAR orbit with a mass of 575.00 kg.

Starlink 37127について

説明を読み込み中...

次回通過

Passes for default location (London). Set your location on the main map for personalized predictions.

高度履歴

Loading altitude history...

軌道要素

1 68236U 26054E 26166.37934064 .00033874 00000-0 61411-3 0 9990
2 68236 53.1572 198.5205 0000958 75.3961 284.7154 15.49325544 14012
Epoch: Jun 15, 2026 • Age: 25 hours

現在のステータス

高度 420.3 km
速度 7.66 km/s
衛星直下点 32.59°N, 76.69°W
打ち上げ日 Mar 17, 2026
運用期間 0.2 years
タイプ internet

技術仕様

分類 Payload
質量 575.00 kg
乾燥質量 530.00 kg
総質量 575.00 kg
長さ 0.30 m
直径 4.10 m
スパン 29.00 m
形状 Box + pan
製造者 SPXS
バスタイプ Starlink V2MO
フェーズステータス In Orbit
所有者/国 SPXS/US

Most Searched